Location: Unspecified
(0.0000°N, 0.0000°E)
Time: 20:54:41
(UTC+00:00)

BlueWalker 3 - Pass Details

Date: 03 June 2023
Orbit: 494 x 513 km, 53.2° (Epoch: 05 June)

Event Time Altitude Azimuth Distance (km) Brightness Sun altitude
Exits shadow 04:30:18 49° 302° (WNW) 666 2.2 -20.2°
Maximum altitude 04:31:13 71° 237° (WSW) 543 1.8 -20.0°
Drops below altitude 10° 04:35:08 10° 152° (SSE) 1,729 4.7 -19.1°
Sets 04:37:20 0° 150° (SSE) 2,616 5.7 -18.6°
